2022/12/31 00:00:00,46.9,-1.8
2022/12/31 00:10:00,46.9,-1.8
2022/12/31 00:20:00,46.9,-2.1
2022/12/31 00:30:00,46.8,-2.0
2022/12/31 00:40:00,46.8,-1.9
2022/12/31 00:50:00,46.8,-2.0
2022/12/31 01:00:00,46.7,-1.9
2022/12/31 01:10:00,46.7,-2.0
2022/12/31 01:20:00,46.7,-1.7
2022/12/31 01:30:00,46.7,-1.9
2022/12/31 01:40:00,46.7,-1.9
2022/12/31 01:50:00,46.7,-1.8
2022/12/31 02:00:00,46.6,-2.0
2022/12/31 02:10:00,46.6,-2.1
2022/12/31 02:20:00,46.6,-1.8
2022/12/31 02:30:00,46.6,-1.9
2022/12/31 02:40:00,46.5,-1.8
2022/12/31 02:50:00,46.5,-2.0
2022/12/31 03:00:00,46.5,-1.8
2022/12/31 03:10:00,46.4,-1.9
2022/12/31 03:20:00,46.4,-2.0
2022/12/31 03:30:00,46.4,-1.9
2022/12/31 03:40:00,46.4,-2.0
2022/12/31 03:50:00,46.4,-1.7
2022/12/31 04:00:00,46.3,-1.7
2022/12/31 04:10:00,46.3,-1.7
2022/12/31 04:20:00,46.3,-1.5
2022/12/31 04:30:00,46.3,-1.7
2022/12/31 04:40:00,46.3,-1.7
2022/12/31 04:50:00,46.2,-1.8
2022/12/31 05:00:00,46.2,-1.8
2022/12/31 05:10:00,46.2,-2.1
2022/12/31 05:20:00,46.2,-1.7
2022/12/31 05:30:00,46.2,-1.3
2022/12/31 05:40:00,46.2,-1.7
2022/12/31 05:50:00,46.2,-1.7
2022/12/31 06:00:00,46.2,-1.7
2022/12/31 06:10:00,46.1,-1.7
2022/12/31 06:20:00,46.1,-1.8
2022/12/31 06:30:00,46.1,-1.5
2022/12/31 06:40:00,46.1,-1.7
2022/12/31 06:50:00,46.1,-1.4
2022/12/31 07:00:00,46.0,-1.6
2022/12/31 07:10:00,46.0,-1.6
2022/12/31 07:20:00,46.0,-1.7
2022/12/31 07:30:00,46.0,-1.3
2022/12/31 07:40:00,46.0,-1.4
2022/12/31 07:50:00,45.9,-1.3
2022/12/31 08:00:00,45.9,-1.3
2022/12/31 08:10:00,45.9,-1.1
2022/12/31 08:20:00,45.9,-0.7
2022/12/31 08:30:00,45.9,-0.5
2022/12/31 08:40:00,45.8,-0.4
2022/12/31 08:50:00,45.8, 0.2
2022/12/31 09:00:00,45.8, 0.5
2022/12/31 09:10:00,45.8, 0.7
2022/12/31 09:20:00,45.8, 1.3
2022/12/31 09:30:00,45.8, 1.6
2022/12/31 09:40:00,45.8, 1.8
2022/12/31 09:50:00,45.8, 1.8
2022/12/31 10:00:00,45.8, 1.5
2022/12/31 10:10:00,45.8, 2.0
2022/12/31 10:20:00,45.9, 4.0
2022/12/31 10:30:00,45.8, 6.5
2022/12/31 10:40:00,45.9, 5.4
2022/12/31 10:50:00,45.8, 3.6
2022/12/31 11:00:00,45.9, 4.7
2022/12/31 11:10:00,45.9, 4.6
2022/12/31 11:20:00,45.9, 5.6
2022/12/31 11:30:00,45.8, 5.4
2022/12/31 11:40:00,45.9, 7.4
2022/12/31 11:50:00,46.0, 8.9
2022/12/31 12:00:00,45.7, 7.2
2022/12/31 12:10:00,45.6, 7.4
2022/12/31 12:20:00,45.6,10.1
2022/12/31 12:30:00,45.5, 8.6
2022/12/31 12:40:00,45.5, 7.2
2022/12/31 12:50:00,45.4, 5.6
2022/12/31 13:00:00,45.3, 8.3
2022/12/31 13:10:00,45.6,11.7
2022/12/31 13:20:00,45.5, 9.6
2022/12/31 13:30:00,45.3,11.4
2022/12/31 13:40:00,45.4, 9.6
2022/12/31 13:50:00,45.0, 6.8
2022/12/31 14:00:00,44.9, 6.9
2022/12/31 14:10:00,44.6, 5.2
2022/12/31 14:20:00,44.5, 6.0
2022/12/31 14:30:00,44.5, 8.0
2022/12/31 14:40:00,44.2, 4.9
2022/12/31 14:50:00,44.1, 6.0
2022/12/31 15:00:00,44.1, 8.7
2022/12/31 15:10:00,44.1, 6.0
2022/12/31 15:20:00,44.0, 6.7
2022/12/31 15:30:00,43.7, 3.3
2022/12/31 15:40:00,43.7, 2.4
2022/12/31 15:50:00,43.6, 1.8
2022/12/31 16:00:00,43.5, 1.8
2022/12/31 16:10:00,43.5, 1.7
2022/12/31 16:20:00,43.5, 1.3
2022/12/31 16:30:00,43.5, 1.2
2022/12/31 16:40:00,43.4, 1.2
2022/12/31 16:50:00,43.4, 0.8
2022/12/31 17:00:00,43.3, 0.6
2022/12/31 17:10:00,43.3, 0.2
2022/12/31 17:20:00,43.3, 0.2
2022/12/31 17:30:00,43.2,-0.3
2022/12/31 17:40:00,43.3,-0.2
2022/12/31 17:50:00,43.2,-0.4
2022/12/31 18:00:00,43.2,-0.5
2022/12/31 18:10:00,43.3,-0.9
2022/12/31 18:20:00,43.3,-1.1
2022/12/31 18:30:00,43.3,-1.6
2022/12/31 18:40:00,43.3,-1.2
2022/12/31 18:50:00,43.3,-1.1
2022/12/31 19:00:00,43.3,-1.1
2022/12/31 19:10:00,43.2,-1.0
2022/12/31 19:20:00,43.1,-1.2
2022/12/31 19:30:00,43.2,-1.4
2022/12/31 19:40:00,43.1,-1.2
2022/12/31 19:50:00,43.1,-1.2
2022/12/31 20:00:00,43.1,-1.1
2022/12/31 20:10:00,43.0,-1.0
2022/12/31 20:20:00,43.0,-0.9
2022/12/31 20:30:00,43.0,-0.8
2022/12/31 20:40:00,43.0,-1.2
2022/12/31 20:50:00,43.0,-1.2
2022/12/31 21:00:00,42.9,-1.2
2022/12/31 21:10:00,43.0,-1.2
2022/12/31 21:20:00,43.0,-1.3
2022/12/31 21:30:00,43.0,-1.2
2022/12/31 21:40:00,43.0,-1.1
2022/12/31 21:50:00,42.9,-1.3
2022/12/31 22:00:00,42.9,-1.3
2022/12/31 22:10:00,42.9,-1.5
2022/12/31 22:20:00,42.9,-1.2
2022/12/31 22:30:00,42.9,-1.3
2022/12/31 22:40:00,42.9,-1.4
2022/12/31 22:50:00,42.8,-1.4
2022/12/31 23:00:00,42.8,-1.3
2022/12/31 23:10:00,42.8,-1.3
2022/12/31 23:20:00,42.8,-1.2
2022/12/31 23:30:00,42.7,-1.4
2022/12/31 23:40:00,42.7,-1.3
2022/12/31 23:50:00,42.8,-1.2
